LZ3SV-3 Weather Reports


Display with metric or nautical units.
time (UTC)temp
F
wind
direction
speed
MPH
gust
MPH
rain 1hr
in
rain 24hr
in
rain mn
in
humidity
%
barometer
mb
20260504003112 44 0.0 0.0 0.00 0.00 0.00 65 992.7
20260504002112 44 0.0 0.0 0.00 0.00 0.00 65 992.8
20260504001113 44 0.0 0.0 0.00 0.00 0.00 65 992.9
20260503235112 44 0.0 0.0 0.00 0.00 0.00 64 993.0
20260503234112 44 0.0 0.0 0.00 0.00 0.00 64 993.0
20260503233112 44 0.0 0.0 0.00 0.00 0.00 64 993.1
20260503232112 45 0.0 0.0 0.00 0.00 0.00 64 993.2
20260503231112 45 0.0 0.0 0.00 0.00 0.00 65 993.2
20260503230112 45 0.0 0.0 0.00 0.00 0.00 65 993.2
20260503224112 44 0.0 0.0 0.00 0.00 0.00 66 993.1
20260503223112 44 0.0 0.0 0.00 0.00 0.00 67 993.1
20260503222112 44 0.0 0.0 0.00 0.00 0.00 67 993.0
20260503220112 45 0.0 0.0 0.00 0.00 0.00 67 992.9
20260503215112 45 0.0 0.0 0.00 0.00 0.00 66 993.0
20260503214112 45 0.0 0.0 0.00 0.00 0.00 66 992.8
20260503212112 45 0.0 0.0 0.00 0.00 0.00 65 992.9
20260503211112 45 0.0 0.0 0.00 0.00 0.00 64 992.8
20260503210111 45 0.0 0.0 0.00 0.00 0.00 66 992.8
20260503205111 46 0.0 0.0 0.00 0.00 0.00 65 992.8
20260503204112 45 0.0 0.0 0.00 0.00 0.00 65 992.8
20260503203112 46 0.0 0.0 0.00 0.00 0.00 64 992.9
20260503201111 46 0.0 0.0 0.00 0.00 0.00 65 993.0
20260503200111 46 0.0 0.0 0.00 0.00 0.00 67 993.2
20260503195112 47 0.0 0.0 0.00 0.00 0.00 68 993.3
20260503194112 47 0.0 0.0 0.00 0.00 0.00 68 993.3
20260503192113 47 0.0 0.0 0.00 0.00 0.00 69 993.4
20260503184111 48 0.0 0.0 0.00 0.00 0.00 68 993.4
20260503183112 49 0.0 0.0 0.00 0.00 0.00 65 993.3
20260503182111 50 0.0 0.0 0.00 0.00 0.00 62 993.3
20260503181111 50 0.0 0.0 0.00 0.00 0.00 59 993.4
20260503175111 52 0.0 0.0 0.00 0.00 0.00 56 993.5
20260503174111 51 0.0 0.0 0.00 0.00 0.00 57 993.5
20260503173112 51 0.0 0.0 0.00 0.00 0.00 58 993.5
20260503172111 52 0.0 0.0 0.00 0.00 0.00 60 993.4
20260503171111 52 0.0 0.0 0.00 0.00 0.00 62 993.3
20260503160111 53 0.0 0.0 0.00 0.00 0.00 59 993.0
20260503150111 54 0.0 0.0 0.00 0.00 0.00 56 993.2
20260503140112 54 0.0 0.0 0.00 0.00 0.00 50 993.6
20260503131111 56 0.0 0.0 0.00 0.00 0.00 45 993.3
20260503130110 56 0.0 0.0 0.00 0.00 0.00 47 993.5
20260503120110 54 0.0 0.0 0.00 0.00 0.00 47 994.0
20260503110110 54 0.0 0.0 0.00 0.00 0.00 51 994.6
20260503100110 51 0.0 0.0 0.00 0.00 0.00 55 995.0
20260503090110 54 0.0 0.0 0.00 0.00 0.00 52 995.1
20260503080110 51 0.0 0.0 0.00 0.00 0.00 61 995.0
20260503072110 48 0.0 0.0 0.00 0.00 0.00 85 995.0
20260503071110 47 0.0 0.0 0.00 0.00 0.00 88 994.8
20260503070110 47 0.0 0.0 0.00 0.00 0.00 88 995.0
20260503054110 45 0.0 0.0 0.00 0.00 0.00 100 994.6
20260503053110 44 0.0 0.0 0.00 0.00 0.00 100 994.7
20260503052110 43 0.0 0.0 0.00 0.00 0.00 100 994.5
20260503050110 43 0.0 0.0 0.00 0.00 0.00 100 994.4
20260503044110 42 0.0 0.0 0.00 0.00 0.00 100 994.4
20260503042109 42 0.0 0.0 0.00 0.00 0.00 100 994.4
20260503041110 41 0.0 0.0 0.00 0.00 0.00 100 994.3
20260503040110 41 0.0 0.0 0.00 0.00 0.00 100 994.1
20260503035109 41 0.0 0.0 0.00 0.00 0.00 100 993.9
20260503033109 41 0.0 0.0 0.00 0.00 0.00 100 993.8
20260503032110 41 0.0 0.0 0.00 0.00 0.00 100 993.8
20260503031110 41 0.0 0.0 0.00 0.00 0.00 100 993.8
20260503025110 41 0.0 0.0 0.00 0.00 0.00 100 993.8
20260503024110 41 0.0 0.0 0.00 0.00 0.00 100 993.7
20260503023109 41 0.0 0.0 0.00 0.00 0.00 100 993.7
20260503022110 41 0.0 0.0 0.00 0.00 0.00 100 993.8
20260503021110 41 0.0 0.0 0.00 0.00 0.00 100 993.8
20260503015110 41 0.0 0.0 0.00 0.00 0.00 100 993.8
20260503014110 41 0.0 0.0 0.00 0.00 0.00 100 993.9
20260503013110 42 0.0 0.0 0.00 0.00 0.00 100 993.8
20260503012109 41 0.0 0.0 0.00 0.00 0.00 100 993.7
20260503011109 42 0.0 0.0 0.00 0.00 0.00 100 993.4
20260503010110 42 0.0 0.0 0.00 0.00 0.00 100 993.6
20260503005109 42 0.0 0.0 0.00 0.00 0.00 100 993.6
20260503004110 42 0.0 0.0 0.00 0.00 0.00 100 993.5